User: anonymous   Login
Location: Unspecified
(0.0000°N, 0.0000°E)
Time: 10:28:50
(UTC+02:00)
Language:

Delta 2 Rocket - Orbit

View from above orbital plane
View from above orbital plane
View from above satellite
View from above satellite

Ground track
Ground track

The orbit data is extracted from the following two-line orbital elements,

1 20453U 90008B   14296.79272878  .00016271  00000-0  10309-2 0  1111
2 20453 035.6239 130.2235 0318946 075.7592 287.8321 14.74747381304763
Epoch (UTC): 23 October 2014 19:01:31
Eccentricity: 0.0318946
inclination: 35.6239°
perigee height: 422 km
apogee height: 870 km
right ascension of ascending node: 130.2235°
argument of perigee: 75.7592°
revolutions per day: 14.74747381
mean anomaly at epoch: 287.8321°
orbit number at epoch: 30476

The dashed part of the orbit path shows where the satellite is in the earth's shadow,  

DLR